www.pogodaiklimat.ru

Погода и климат >> Архив погоды >> Украина >> Раздельная


ПОГОДА в Раздельной

  • Прогноз погоды в Раздельной
  • Монитор погоды в Раздельной

АРХИВ ПОГОДЫ в Раздельной

Время (UTC), дата Ветер
(напр.,м/с)
 
Видим.   Явления Облачность Т
(С)
Тd
(С)
f
(%)
Тe
(С)
Тes
(С)
Комфортность P
(гПа)
Po
(гПа)
Тmin
(С)
Tmax
(С)
R
(мм)
R24
(мм)
S
(см)
18 13.09 штиль 0 20 км ясно +21.1 +7.0 40 +22 +22 комфорт 1022.8 1005.4 +29.6
21 13.09 штиль 0 20 км 4/0
[Ac trans]
+16.8 +8.2 57 +17 +17 1023.0 1005.3
00 14.09 С 2 20 км ясно +20.2 +9.7 51 +22 +22 комфорт 1022.2 1005.0
03 14.09 С 2 20 км 6/6 600 м
[Sc]
+18.1 +9.2 56 +19 +19 1022.3 1004.7
06 14.09 С 3 20 км 8/0
[Ac trans]
+20.2 +11.2 56 +22 +23 комфорт 1023.1 1005.6 +16.7
09 14.09 С 4 20 км 9/0
[Ac trans Ci fib]
+24.6 +11.9 45 +26 +31 жарко 1022.5 1005.3
12 14.09 СЗ 4 20 км 9/4 600 м
[Cu hum Ac lent]
+24.2 +12.8 49 +26 +27 жарко 1022.2 1005.2
15 14.09 С 5 20 км 9/9 600 м
[Cu med, cong]
+21.8 +14.7 64 +25 +25 комфорт 1022.2 1004.8
18 14.09 С 3 20 км 3/0
[Ac trans]
+17.8 +8.3 54 +18 +18 1024.5 1006.8 +25.7
21 14.09 С 2 20 км 3/0
[Ac trans]
+14.8 +5.1 52 +15 +15 1025.9 1008.0
00 15.09 С 3 20 км 3/0
[Ac trans]
+13.8 +4.1 52 +13 +13 1026.4 1008.7
03 15.09 С 2 20 км 3/0
[Ci fib]
+11.3 +3.6 59 +10 +10 1026.6 1008.5
06 15.09 СВ 1 20 км 4/0
[Ci fib]
+14.8 +5.1 52 +15 +19 1027.3 1009.4 +11.1
12 15.09 З 2 20 км 3/0
[Ci fib]
+22.2 +3.8 30 +22 +30 комфорт 1023.9 1006.7
15 15.09 ЮЗ 2 20 км 3/0
[Ci fib]
+22.2 +3.3 29 +22 +23 комфорт 1022.4 1005.0
18 15.09 Ю 2 20 км 3/0
[Ci fib]
+16.3 +4.7 46 +17 +17 1022.1 1004.4 +23.2
21 15.09 ЮЗ 2 20 км ясно +13.1 +6.7 65 +13 +13 1021.2 1003.3
00 16.09 ЮЗ 2 10 км ясно +12.6 +7.5 71 +12 +12 1019.6 1001.9
03 16.09 ЮЗ 2 10 км ясно +12.4 +8.2 76 +12 +12 1017.9 1000.0
06 16.09 З 2 10 км ясно +15.9 +9.7 67 +16 +19 1017.0 999.4 +11.9
09 16.09 СЗ 2 20 км ясно +22.4 +9.5 44 +24 +34 комфорт 1015.8 998.6
12 16.09 СЗ 3 20 км ясно +26.8 +7.8 30 +27 +33 жарко 1013.1 996.4
15 16.09 З 3 20 км ясно +26.3 +7.4 30 +26 +27 жарко 1011.7 994.8
18 16.09 СЗ 1 20 км ясно +20.8 +6.3 39 +23 +23 комфорт 1012.4 995.1 +27.2
21 16.09 штиль 0 20 км ясно +15.2 +6.0 54 +15 +15 1012.2 994.6
00 17.09 Ю 1 20 км 3/0
[Ci fib]
+14.7 +5.5 54 +15 +15 1011.3 993.9
03 17.09 штиль 0 20 км 8/0
[Ac trans]
+13.5 +5.9 60 +13 +13 1010.6 992.9
06 17.09 С 4 20 км 10/10 600 м
[Sc]
+17.9 +8.7 55 +18 +18 1011.9 994.5 +13.1
09 17.09 СЗ 2 10 км 10/10 600 м
[Sc]
+17.4 +12.7 74 +18 +18 1012.2 994.7
12 17.09 СЗ 2 20 км {ливн. осадки} 10/0
[Ac und]
+19.8 +12.8 64 +22 +24 комфорт 1011.3 994.2
15 17.09 СЗ 2 20 км 10/0
[Ac und]
+20.0 +11.2 57 +22 +22 комфорт 1010.4 993.1
18 17.09 штиль 0 20 км {ливн. осадки} 8/0
[Ac und]
+17.2 +10.3 64 +17 +17 1010.6 993.1 +20.9 0.0
21 17.09 штиль 0 10 км 8/0
[Ac trans]
+13.7 +9.9 78 +13 +13 1009.9 992.2
00 18.09 штиль 0 10 км 8/0
[Ac trans]
+14.0 +10.3 78 +14 +14 1007.6 990.3
06 18.09 СЗ 4 20 км 8/0
[Ac trans]
+14.2 +10.3 77 +13 +14 1009.9 992.3 +12.9
12 18.09 СЗ 5 20 км 8/8 600 м
[Cu med, cong]
+15.2 +4.5 49 +14 +15 1013.8 996.4
18 18.09 СЗ 4 20 км ясно +13.3 +2.5 48 +12 +12 1018.2 1000.4 +17.8
00 19.09 З 1 10 км ясно +7.7 +2.4 69 +7 +7 1021.2 1003.2
06 19.09 З 1 10 км ясно +10.0 +3.8 65 +10 +13 1022.9 1004.8 +4.9
12 19.09 СЗ 4 20 км 4/4 600 м
[Cu hum]
+18.4 +1.8 33 +18 +21 1020.3 1003.0
18 19.09 С 2 20 км ясно +13.3 0.0 40 +13 +13 1020.9 1003.0 +19.0
00 20.09 штиль 0 20 км 10/10 600 м
[Sc]
+10.7 +3.5 61 +10 +10 1021.2 1003.4
06 20.09 СЗ 2 10 км 3/0
[Ac trans]
+11.2 +5.1 66 +10 +12 1020.6 1002.6 +7.8
12 20.09 СЗ 4 20 км {ливн. осадки} 8/8 600 м
[Sc]
+16.7 +2.3 38 +16 +17 1018.7 1001.3

 

Местоположение метеостанции Раздельная (Одесская область, Украина): широта 46.85 долгота 30.08 высота над уровнем моря 148 м.

В архиве по умолчанию представлена погода в Раздельной за последнюю неделю. Архивные данные за месяц целиком и за предыдущие месяцы, начиная с января 2011 года, Вы можете получить, выбрав интересующий диапазон дат из раскрывающегося списка и нажав кнопку "Ввод!".


*Определитесь, кто Вы:
робот инопланетянин человек

Внимание! Время в таблицах - всемирное. Для получения местного времени необходимо прибавить поправку, которая равна 2 ч.

Смотрите также архив погоды в соседних городах и на ближайших метеорологических станциях:

Погода в Заставе (Одесская область, Украина) (8 км)
Погода в Тирасполе (Молдова) (37 км)
Погода в Сербке (Одесская область, Украина) (54 км)
Погода в Затишье (Одесская область, Украина) (55 км)
Погода в Штефан Водэ (Молдова) (59 км)
Погода в Ильичевске (Одесская область, Украина) (69 км)
Погода в Одессе (Одесская область, Украина) (70 км)
Погода в Белгород-Днестровском (Одесская область, Украина) (78 км)
Погода в Балцате (Молдова) (83 км)
Погода в Кишиневе (Молдова) (86 км)

Пояснения к столбцам:

Ветер - указаны скорость ветра в м/с - средняя за 10 мин, порывы в срок и между сроками (в фигурных скобках) и направление, откуда дует ветер: С - северный, СВ - северо-восточный, В - восточный, ЮВ - юго-восточный, Ю - южный, ЮЗ - юго-западный, З - западный, СЗ - северо-западный.
Видимость - горизонтальная дальность видимости в метрах или километрах. При видимости от 1 до 10 км при отсутствии осадков обычно наблюдается дымка, при ухудшении видимости до 1 км и менее - туман. В сухую погоду видимость может ухудшаться дымом, пылью или мглою.
Явления - указаны атмосферные явления, наблюдавшиеся в срок или в последний час перед сроком; фигурными скобками обозначены явления, наблюдавшиеся между сроками (за 1-3 часа до срока); квадратными скобками обозначены град или гололедные отложения с указанием их диаметра в мм.
Облачность - указаны через наклонную черту общая и нижняя облачность в баллах и высота нижней границы облаков в метрах; квадратными скобками обозначены формы облаков: Ci - перистые, Cs - перисто-слоистые, Cc - перисто-кучевые, Ac - высококучевые, As - высокослоистые, Sc - слоисто-кучевые, Ns - слоисто-дождевые, Cu - кучевые, Cb - кучево-дождевые. Подробнее классификацию облаков см. в Атласе облаков (PDF).
T - Температура воздуха - температура, измеренная на высоте 2 м над землей.
Td - Температура точки росы - температура, при понижении до которой содержащийся в воздухе водяной пар достигнет насыщения.
f - Относительная влажность воздуха - влажноcть воздуха, измеренная на высоте 2 м над землей.
Te - Эффективная температура - температура, которую ощущает одетый по сезону человек в тени. Характеристика душности погоды. При расчете учитывается влияние влажности воздуха и скорости ветра на теплоощущения человека.
Tes - Эффективная температура на солнце - температура, которую ощущает человек, с поправкой на солнечный нагрев. Характеристика знойности погоды. Зависит от высоты солнца над горизонтом, облачности и скорости ветра. Ночью, в пасмурную погоду, а также при ветре 12 м/с и более поправка равна нулю.
P - Атмосферное давление - приведенное к уровню моря атмосферное давление.
Po - Атмосферное давление - измеренное на уровне метеостанции атмосферное давление.
Tmin - Минимальная температура - минимум температуры воздуха на высоте 2 м над землей.
Tmax - Максимальная температура - максимум температуры воздуха на высоте 2 м над землей.
R - Количество осадков - Количество выпавших осадков за период времени, мм. При наведении курсора мыши на число - период времени, за который выпало указанное количество осадков.
R24 - Количество осадков - Количество выпавших осадков за 24 часа, мм.
S - Снежный покров - Высота снежного покрова, см. При наведении курсора мыши на число - состояние снежного покрова и степень покрытия местности в баллах.